Hourly Weather Alkino

Today, 3 March, Wednesday

Time Temperature Precipitation Wind Pressure Humidity
00:00 -8°C° 0.3 mm 6 mps 739 mmHg 93%
01:00 -6°C° 0.3 mm 6 mps 738 mmHg 94%
02:00 -6°C° 0.1 mm 5 mps 738 mmHg 93%
03:00 -7°C° 0.1 mm 4 mps 738 mmHg 93%
04:00 -6°C° 0 mm 3 mps 738 mmHg 91%
05:00 -6°C° 0 mm 3 mps 738 mmHg 93%
06:00 -6°C° 0 mm 3 mps 738 mmHg 94%
07:00 -5°C° 0 mm 2 mps 738 mmHg 95%
08:00 -5°C° 0 mm 3 mps 738 mmHg 93%
09:00 -5°C° 0 mm 3 mps 738 mmHg 91%
10:00 -4°C° 0 mm 3 mps 738 mmHg 90%
11:00 -4°C° 0 mm 3 mps 738 mmHg 89%
12:00 -2°C° 0 mm 3 mps 738 mmHg 88%
13:00 -2°C° 0 mm 3 mps 738 mmHg 88%
14:00 -2°C° 0 mm 3 mps 738 mmHg 88%
15:00 -2°C° 0 mm 3 mps 738 mmHg 89%
16:00 -2°C° 0 mm 3 mps 738 mmHg 90%
17:00 -4°C° 0.1 mm 3 mps 738 mmHg 92%
18:00 -4°C° 0.1 mm 3 mps 738 mmHg 94%
19:00 -5°C° 0.1 mm 3 mps 738 mmHg 96%
20:00 -6°C° 0.1 mm 3 mps 738 mmHg 96%
21:00 -6°C° 0.1 mm 3 mps 738 mmHg 95%
22:00 -7°C° 0.1 mm 4 mps 739 mmHg 95%
23:00 -8°C° 0 mm 4 mps 738 mmHg 94%

Tomorrow, 4 March, Thursday

Time Temperature Precipitation Wind Pressure Humidity
00:00 -9°C° 0 mm 4 mps 738 mmHg 94%
01:00 -10°C° 0 mm 4 mps 738 mmHg 93%
02:00 -11°C° 0 mm 4 mps 739 mmHg 93%
03:00 -12°C° 0 mm 4 mps 739 mmHg 93%
04:00 -14°C° 0 mm 4 mps 740 mmHg 93%
05:00 -15°C° 0 mm 4 mps 740 mmHg 93%
06:00 -16°C° 0 mm 4 mps 740 mmHg 94%
07:00 -16°C° 0 mm 3 mps 740 mmHg 95%
08:00 -16°C° 0 mm 4 mps 740 mmHg 93%
09:00 -15°C° 0 mm 4 mps 740 mmHg 92%
10:00 -13°C° 0 mm 5 mps 741 mmHg 91%
11:00 -12°C° 0.1 mm 6 mps 740 mmHg 91%
12:00 -11°C° 0.1 mm 6 mps 740 mmHg 92%
13:00 -11°C° 0.1 mm 7 mps 739 mmHg 92%
14:00 -11°C° 0.1 mm 7 mps 739 mmHg 91%
15:00 -9°C° 0.1 mm 7 mps 738 mmHg 89%
16:00 -9°C° 0.1 mm 7 mps 738 mmHg 87%
17:00 -10°C° 0.2 mm 8 mps 738 mmHg 89%
18:00 -10°C° 0.2 mm 8 mps 737 mmHg 90%
19:00 -10°C° 0.2 mm 8 mps 736 mmHg 92%
20:00 -9°C° 0.2 mm 9 mps 736 mmHg 90%
21:00 -8°C° 0.2 mm 9 mps 736 mmHg 89%
22:00 -7°C° 0.2 mm 10 mps 735 mmHg 87%
23:00 -6°C° 0.2 mm 8 mps 735 mmHg 85%

Day after tomorrow, 5 March, Friday

Time Temperature Precipitation Wind Pressure Humidity
00:00 -6°C° 0.2 mm 7 mps 736 mmHg 84%
01:00 -6°C° 0.2 mm 6 mps 736 mmHg 82%
02:00 -6°C° 0 mm 5 mps 736 mmHg 83%
03:00 -6°C° 0 mm 5 mps 737 mmHg 85%
04:00 -7°C° 0 mm 4 mps 737 mmHg 86%
05:00 -7°C° 0 mm 4 mps 738 mmHg 88%
06:00 -7°C° 0 mm 4 mps 738 mmHg 89%
07:00 -6°C° 0 mm 3 mps 738 mmHg 90%
08:00 -5°C° 0.4 mm 3 mps 738 mmHg 92%
09:00 -5°C° 0.4 mm 3 mps 739 mmHg 94%
10:00 -3°C° 0.4 mm 2 mps 739 mmHg 96%
11:00 -3°C° 0.7 mm 2 mps 739 mmHg 96%
12:00 -3°C° 0.7 mm 2 mps 738 mmHg 97%
13:00 -2°C° 0.7 mm 2 mps 738 mmHg 97%
14:00 -2°C° 0.3 mm 2 mps 738 mmHg 97%
15:00 -2°C° 0.3 mm 3 mps 738 mmHg 96%
16:00 -2°C° 0.3 mm 3 mps 738 mmHg 96%
17:00 -2°C° 0.6 mm 3 mps 738 mmHg 96%
18:00 -4°C° 0.6 mm 4 mps 738 mmHg 96%
19:00 -4°C° 0.6 mm 4 mps 738 mmHg 96%
20:00 -7°C° 0.5 mm 5 mps 739 mmHg 95%
21:00 -8°C° 0.5 mm 5 mps 740 mmHg 94%
22:00 -10°C° 0.5 mm 6 mps 741 mmHg 92%
23:00 -13°C° 0 mm 5 mps 742 mmHg 93%

6 March, Saturday

Time Temperature Precipitation Wind Pressure Humidity
00:00 -15°C° 0 mm 5 mps 743 mmHg 93%
01:00 -18°C° 0 mm 4 mps 744 mmHg 94%
02:00 -18°C° 0 mm 3 mps 745 mmHg 94%
03:00 -21°C° 0 mm 3 mps 746 mmHg 95%
04:00 -22°C° 0 mm 3 mps 747 mmHg 96%
05:00 -21°C° 0 mm 2 mps 748 mmHg 96%
06:00 -21°C° 0 mm 2 mps 748 mmHg 96%
07:00 -23°C° 0 mm 2 mps 748 mmHg 96%
08:00 -18°C° 0 mm 1 mps 748 mmHg 94%
09:00 -16°C° 0 mm 1 mps 748 mmHg 92%
10:00 -14°C° 0 mm 1 mps 748 mmHg 90%
11:00 -13°C° 0 mm 1 mps 748 mmHg 88%
12:00 -12°C° 0 mm 1 mps 748 mmHg 87%
13:00 -13°C° 0 mm 2 mps 748 mmHg 86%
14:00 -13°C° 0 mm 2 mps 747 mmHg 87%
15:00 -13°C° 0 mm 2 mps 747 mmHg 87%
16:00 -10°C° 0 mm 1 mps 746 mmHg 88%
17:00 -11°C° 0 mm 1 mps 746 mmHg 89%
18:00 -12°C° 0 mm 1 mps 745 mmHg 89%
19:00 -13°C° 0 mm 1 mps 745 mmHg 90%
20:00 -13°C° 0 mm 1 mps 744 mmHg 90%
21:00 -14°C° 0 mm 1 mps 744 mmHg 89%
22:00 -14°C° 0 mm 1 mps 744 mmHg 89%
23:00 -15°C° 0 mm 1 mps 744 mmHg 89%

7 March, Sunday

Time Temperature Precipitation Wind Pressure Humidity
00:00 -16°C° 0 mm 1 mps 743 mmHg 89%
01:00 -18°C° 0 mm 2 mps 743 mmHg 89%
02:00 -17°C° 0 mm 1 mps 743 mmHg 89%
03:00 -17°C° 0 mm 1 mps 743 mmHg 89%
04:00 -18°C° 0 mm 1 mps 743 mmHg 88%
05:00 -18°C° 0 mm 1 mps 743 mmHg 88%
06:00 -18°C° 0 mm 1 mps 744 mmHg 88%
07:00 -18°C° 0 mm 1 mps 744 mmHg 87%
08:00 -18°C° 0 mm 2 mps 744 mmHg 88%
09:00 -17°C° 0 mm 2 mps 744 mmHg 89%
10:00 -15°C° 0 mm 2 mps 744 mmHg 90%
11:00 -16°C° 0 mm 3 mps 745 mmHg 90%
12:00 -15°C° 0 mm 3 mps 745 mmHg 90%
13:00 -14°C° 0 mm 3 mps 745 mmHg 90%
14:00 -14°C° 0 mm 3 mps 745 mmHg 90%
15:00 -14°C° 0 mm 3 mps 746 mmHg 89%
16:00 -14°C° 0 mm 3 mps 746 mmHg 89%
17:00 -16°C° 0 mm 3 mps 746 mmHg 90%
18:00 -17°C° 0 mm 3 mps 746 mmHg 91%
19:00 -18°C° 0 mm 2 mps 747 mmHg 93%
20:00 -21°C° 0 mm 3 mps 747 mmHg 93%
21:00 -22°C° 0 mm 3 mps 747 mmHg 93%
22:00 -23°C° 0 mm 3 mps 747 mmHg 93%
23:00 -23°C° 0 mm 4 mps 746 mmHg 91%

8 March, Monday

Time Temperature Precipitation Wind Pressure Humidity
00:00 -22°C° 0 mm 5 mps 746 mmHg 90%
01:00 -22°C° 0 mm 6 mps 745 mmHg 89%
02:00 -21°C° 0 mm 7 mps 744 mmHg 89%
03:00 -21°C° 0 mm 7 mps 744 mmHg 89%
04:00 -21°C° 0 mm 8 mps 743 mmHg 90%
05:00 -19°C° 0.1 mm 8 mps 742 mmHg 90%
06:00 -19°C° 0.1 mm 9 mps 741 mmHg 90%
07:00 -17°C° 0.1 mm 9 mps 740 mmHg 90%
08:00 -15°C° 0.1 mm 10 mps 739 mmHg 89%
09:00 -14°C° 0.1 mm 10 mps 739 mmHg 88%
10:00 -13°C° 0.1 mm 11 mps 738 mmHg 87%
11:00 -12°C° 0.1 mm 10 mps 738 mmHg 87%
12:00 -10°C° 0.1 mm 10 mps 738 mmHg 87%
13:00 -9°C° 0.1 mm 9 mps 738 mmHg 86%
14:00 -8°C° 0.4 mm 8 mps 738 mmHg 88%
15:00 -8°C° 0.4 mm 7 mps 738 mmHg 89%
16:00 -8°C° 0.4 mm 6 mps 738 mmHg 91%
17:00 -7°C° 0.9 mm 5 mps 738 mmHg 90%
18:00 -8°C° 0.9 mm 5 mps 738 mmHg 90%
19:00 -9°C° 0.9 mm 4 mps 738 mmHg 90%
20:00 -10°C° 0 mm 4 mps 739 mmHg 89%
21:00 -12°C° 0 mm 5 mps 740 mmHg 88%
22:00 -14°C° 0 mm 6 mps 741 mmHg 87%
23:00 -14°C° 0 mm 5 mps 741 mmHg 88%
Show more